TimePST,TemperatureF,Dew PointF,Humidity,Sea Level PressureIn,VisibilityMPH,Wind Direction,Wind SpeedMPH,Gust SpeedMPH,PrecipitationIn,Events,Conditions,WindDirDegrees,DateUTC
12:34 AM,39.2,39.2,100,30.33,0.5,SSE,3.5,-,N/A,Fog,Fog,150,2013-03-01 08:34:00
12:49 AM,39.2,39.2,100,30.33,0.5,South,2.3,-,N/A,Fog,Fog,180,2013-03-01 08:49:00
12:54 AM,39.2,39.2,100,30.33,0.2,SSE,2.3,-,N/A,Fog,Fog,160,2013-03-01 08:54:00
12:58 AM,39.9,39.7,99,30.39,0.2,SSE,2.3,-,N/A,Fog,Fog,150,2013-03-01 08:58:00
12:59 AM,39.2,39.2,100,30.33,0.2,SSE,2.3,-,N/A,Fog,Fog,150,2013-03-01 08:59:00
1:04 AM,41.0,39.2,93,30.33,0.2,SE,3.5,-,N/A,Fog,Fog,140,2013-03-01 09:04:00
1:17 AM,41.0,39.2,93,30.33,0.5,SSE,3.5,-,N/A,Fog,Fog,160,2013-03-01 09:17:00
1:18 AM,41.0,41.0,100,30.33,0.5,SSE,3.5,-,N/A,Fog,Fog,160,2013-03-01 09:18:00
1:27 AM,41.0,41.0,100,30.33,0.5,South,4.6,-,N/A,Fog,Fog,180,2013-03-01 09:27:00
1:29 AM,41.0,41.0,100,30.33,0.5,South,5.8,-,N/A,Fog,Fog,190,2013-03-01 09:29:00
1:30 AM,41.0,41.0,100,30.33,0.8,South,5.8,-,N/A,,Mist,190,2013-03-01 09:30:00
1:31 AM,41.0,41.0,100,30.33,0.8,South,5.8,-,N/A,,Mist,190,2013-03-01 09:31:00
1:33 AM,41.0,41.0,100,30.33,1.0,South,6.9,-,N/A,,Mist,190,2013-03-01 09:33:00
1:36 AM,41.0,41.0,100,30.33,1.2,South,6.9,-,N/A,,Overcast,190,2013-03-01 09:36:00
1:37 AM,41.0,41.0,100,30.33,1.5,South,6.9,-,N/A,,Overcast,190,2013-03-01 09:37:00
1:38 AM,41.0,41.0,100,30.33,1.8,South,5.8,-,N/A,,Overcast,190,2013-03-01 09:38:00
1:40 AM,42.8,41.0,93,30.32,2.0,South,6.9,-,N/A,,Overcast,190,2013-03-01 09:40:00
1:41 AM,42.8,41.0,93,30.32,2.5,South,6.9,-,N/A,,Overcast,190,2013-03-01 09:41:00
1:43 AM,42.8,41.0,93,30.32,2.5,South,6.9,-,N/A,Rain,Light Rain,180,2013-03-01 09:43:00
1:44 AM,42.8,42.8,100,30.32,3.0,South,8.1,-,N/A,Rain,Light Rain,180,2013-03-01 09:44:00
1:45 AM,42.8,42.8,100,30.32,3.0,South,8.1,-,N/A,Rain,Light Rain,190,2013-03-01 09:45:00
1:58 AM,42.3,42.1,99,30.38,4.0,South,8.1,-,0.00,,Light Drizzle,190,2013-03-01 09:58:00
2:03 AM,42.8,42.8,100,30.31,4.0,South,9.2,-,N/A,,Light Drizzle,190,2013-03-01 10:03:00
2:07 AM,42.8,42.8,100,30.31,5.0,South,9.2,-,N/A,,Overcast,190,2013-03-01 10:07:00
2:10 AM,42.8,42.8,100,30.30,5.0,South,9.2,-,N/A,,Overcast,180,2013-03-01 10:10:00
2:13 AM,42.8,42.8,100,30.30,5.0,South,10.4,-,N/A,,Light Drizzle,180,2013-03-01 10:13:00
2:18 AM,42.8,42.8,100,30.30,4.0,South,9.2,-,N/A,,Light Drizzle,180,2013-03-01 10:18:00
2:23 AM,42.8,42.8,100,30.30,4.0,South,10.4,-,N/A,,Overcast,190,2013-03-01 10:23:00
2:28 AM,42.8,42.8,100,30.31,5.0,SSW,10.4,-,N/A,,Overcast,200,2013-03-01 10:28:00
2:52 AM,42.8,42.8,100,30.28,6.0,South,13.8,21.9,N/A,,Light Drizzle,190,2013-03-01 10:52:00
2:58 AM,42.8,42.8,100,30.33,6.0,South,16.1,21.9,0.01,,Light Drizzle,190,2013-03-01 10:58:00
3:19 AM,42.8,42.8,100,30.28,9.0,South,16.1,-,N/A,,Overcast,190,2013-03-01 11:19:00
3:35 AM,42.8,42.8,100,30.29,9.0,SSW,13.8,19.6,N/A,,Overcast,200,2013-03-01 11:35:00
3:42 AM,42.8,42.8,100,30.30,10.0,SSW,13.8,-,N/A,,Light Drizzle,200,2013-03-01 11:42:00
3:52 AM,42.8,42.8,100,30.30,10.0,SSW,13.8,-,N/A,,Overcast,200,2013-03-01 11:52:00
3:54 AM,42.8,42.8,100,30.30,10.0,SSW,13.8,-,N/A,,Light Drizzle,200,2013-03-01 11:54:00
3:58 AM,43.0,43.0,100,30.35,10.0,SSW,12.7,-,0.00,,Light Drizzle,200,2013-03-01 11:58:00
4:04 AM,42.8,42.8,100,30.30,10.0,SSW,12.7,-,N/A,,Overcast,200,2013-03-01 12:04:00
4:20 AM,42.8,42.8,100,30.30,10.0,SSW,15.0,-,N/A,,Overcast,200,2013-03-01 12:20:00
4:22 AM,42.8,42.8,100,30.30,10.0,SSW,16.1,-,N/A,,Light Drizzle,200,2013-03-01 12:22:00
4:41 AM,42.8,42.8,100,30.29,10.0,SSW,15.0,-,N/A,,Light Drizzle,200,2013-03-01 12:41:00
4:55 AM,42.8,42.8,100,30.30,10.0,SSW,16.1,21.9,N/A,,Overcast,200,2013-03-01 12:55:00
4:58 AM,43.2,43.2,100,30.35,10.0,SSW,16.1,21.9,0.00,,Overcast,200,2013-03-01 12:58:00
4:59 AM,42.8,42.8,100,30.30,10.0,SSW,12.7,21.9,N/A,,Overcast,200,2013-03-01 12:59:00
5:00 AM,42.8,42.8,100,30.30,10.0,SSW,15.0,21.9,N/A,,Light Drizzle,200,2013-03-01 13:00:00
5:15 AM,42.8,42.8,100,30.29,10.0,SSW,17.3,-,N/A,,Light Drizzle,200,2013-03-01 13:15:00
5:16 AM,42.8,42.8,100,30.29,10.0,South,16.1,-,N/A,,Overcast,190,2013-03-01 13:16:00
5:22 AM,42.8,42.8,100,30.28,10.0,SSW,15.0,-,N/A,,Light Drizzle,200,2013-03-01 13:22:00
5:32 AM,42.8,42.8,100,30.28,10.0,SSW,15.0,21.9,N/A,,Light Drizzle,200,2013-03-01 13:32:00
5:58 AM,43.0,43.0,100,30.33,10.0,SSW,17.3,24.2,0.00,,Light Drizzle,200,2013-03-01 13:58:00
6:03 AM,42.8,42.8,100,30.29,10.0,SSW,18.4,24.2,N/A,,Light Drizzle,200,2013-03-01 14:03:00
6:50 AM,42.8,42.8,100,30.29,10.0,South,16.1,-,N/A,,Overcast,190,2013-03-01 14:50:00
6:58 AM,43.0,43.0,100,30.34,10.0,South,17.3,-,0.00,,Overcast,190,2013-03-01 14:58:00
7:06 AM,42.8,42.8,100,30.29,10.0,South,17.3,-,N/A,,Overcast,190,2013-03-01 15:06:00
7:35 AM,42.8,42.8,100,30.30,10.0,South,12.7,-,N/A,,Overcast,180,2013-03-01 15:35:00
7:55 AM,42.8,42.8,100,30.29,10.0,South,16.1,-,N/A,,Overcast,180,2013-03-01 15:55:00
7:58 AM,43.2,43.2,100,30.34,10.0,South,15.0,-,N/A,,Overcast,190,2013-03-01 15:58:00
8:04 AM,42.8,42.8,100,30.29,10.0,South,17.3,-,N/A,,Overcast,190,2013-03-01 16:04:00
8:10 AM,42.8,42.8,100,30.29,10.0,South,16.1,23.0,N/A,,Overcast,190,2013-03-01 16:10:00
8:21 AM,42.8,42.8,100,30.30,10.0,South,15.0,23.0,N/A,,Mostly Cloudy,190,2013-03-01 16:21:00
8:58 AM,44.8,44.8,100,30.36,10.0,SSW,19.6,24.2,0.00,,Partly Cloudy,200,2013-03-01 16:58:00
9:55 AM,46.4,42.8,87,30.30,10.0,SSW,18.4,25.3,N/A,Rain,Light Rain,200,2013-03-01 17:55:00
9:58 AM,46.4,43.0,88,30.35,10.0,South,17.3,25.3,N/A,Rain,Light Rain,190,2013-03-01 17:58:00
10:16 AM,46.4,42.8,87,30.31,10.0,SSW,15.0,26.5,N/A,,Overcast,200,2013-03-01 18:16:00
10:19 AM,46.4,42.8,87,30.31,10.0,SSW,18.4,-,N/A,Rain,Light Rain,200,2013-03-01 18:19:00
10:29 AM,46.4,42.8,87,30.32,10.0,SSW,16.1,24.2,N/A,,Overcast,200,2013-03-01 18:29:00
10:58 AM,46.9,43.0,86,30.36,10.0,SSW,18.4,25.3,0.00,,Overcast,210,2013-03-01 18:58:00
11:58 AM,48.4,43.7,84,30.34,10.0,SSW,17.3,24.2,N/A,,Mostly Cloudy,200,2013-03-01 19:58:00
12:58 PM,48.9,44.4,84,30.33,10.0,SSW,17.3,21.9,N/A,,Mostly Cloudy,200,2013-03-01 20:58:00
1:58 PM,49.3,44.6,84,30.33,10.0,SSW,16.1,-,N/A,,Mostly Cloudy,200,2013-03-01 21:58:00
2:58 PM,49.8,45.5,85,30.33,10.0,South,15.0,-,N/A,,Partly Cloudy,190,2013-03-01 22:58:00
3:58 PM,49.6,45.1,84,30.33,10.0,South,11.5,-,N/A,,Partly Cloudy,180,2013-03-01 23:58:00
4:58 PM,48.7,44.1,84,30.34,10.0,South,11.5,-,N/A,,Overcast,190,2013-03-02 00:58:00
5:58 PM,47.8,43.0,83,30.32,10.0,South,9.2,-,N/A,,Mostly Cloudy,180,2013-03-02 01:58:00
6:58 PM,47.1,42.8,85,30.32,10.0,South,4.6,-,N/A,,Partly Cloudy,190,2013-03-02 02:58:00
7:58 PM,46.4,42.8,87,30.32,10.0,South,5.8,-,N/A,,Clear,180,2013-03-02 03:58:00
8:58 PM,45.7,42.3,88,30.32,10.0,South,6.9,-,N/A,,Scattered Clouds,180,2013-03-02 04:58:00
9:58 PM,44.8,41.5,88,30.31,10.0,South,9.2,-,N/A,,Mostly Cloudy,180,2013-03-02 05:58:00
10:58 PM,42.4,40.1,91,30.31,10.0,South,8.1,-,N/A,,Clear,170,2013-03-02 06:58:00
11:58 PM,41.5,39.7,93,30.30,10.0,ESE,2.3,-,N/A,,Clear,110,2013-03-02 07:58:00